Regional Weather Roundup
Issued by NWS

Home | Current Version | Previous Version | Text Only | Print | Product List | Glossary Off
Versions: 1 2 3 4 5 6 7 8 9 10 11 12 13 14 15 16 17 18 19 20 21 22 23 24 25 26 27 28 29 30 31 32 33 34 35 36 37 38 39 40 41 42 43 44 45 46 47 48 49 50

716
ASUS45 KBOU 231910
RWRCO

WEATHER ROUNDUP FOR COLORADO
NATIONAL WEATHER SERVICE DENVER/BOULDER CO
1200 PM MST TUE JAN 23 2018

NOTE: "FAIR" INDICATES FEW OR NO CLOUDS BELOW 12000 FEET WITH NO
SIGNIFICANT WEATHER AND/OR OBSTRUCTIONS TO VISIBILITY.

COZ001>005-013-030-031-232000-
...NORTHWEST COLORADO...

CITY           SKY/WX    TMP DP  RH WIND       PRES   REMARKS
CRAIG          FAIR      17   8  67 CALM      30.34F
HAYDEN         FAIR      16  11  80 S5        30.33F WCI   9
MEEKER         FAIR      22  14  71 CALM      30.33F
RABBIT EARS PA LGT SNOW N/A N/A N/A W12G23    30.17F VSB 3/4
STEAMBOAT SPGS CLOUDY    22  15  75 CALM      30.31F
WALDEN         FAIR      23   7  50 S12G17    30.23F WCI  12
$$

COZ006>008-011-232000-
...WEST CENTRAL VALLEYS...

CITY           SKY/WX    TMP DP  RH WIND       PRES   REMARKS
GRAND JUNCTION FAIR      28  21  75 E6        30.39F WCI  22
MONTROSE       FAIR      32  11  41 CALM      30.39F
EAGLE          FAIR      30  14  51 CALM      30.33F
RIFLE          FAIR      31  17  56 CALM      30.36F
DELTA          FAIR      35  16  46 CALM      30.39F
NUCLA          FAIR      30  12  47 CALM      30.39F
$$

COZ017>023-064>068-232000-
...SOUTHWEST COLORADO...

CITY           SKY/WX    TMP DP  RH WIND       PRES   REMARKS
DURANGO        FAIR      28  15  58 CALM      30.29F
CORTEZ         FAIR      34  18  52 S8        30.32F WCI  27
PAGOSA SPRINGS FAIR      26  15  62 SW3       30.27F
TELLURIDE      FAIR      26   8  46 CALM      30.29F
WOLF CREEK PAS FAIR      19 -13  23 CALM      30.27F
$$

COZ009-010-012-014-032>034-037-058>063-232000-
...CENTRAL COLORADO...

CITY           SKY/WX    TMP DP  RH WIND       PRES   REMARKS
ASPEN          FAIR      29  10  45 CALM      30.27F
BUENA VISTA    FAIR      31   4  31 NW12G17   30.20F WCI  22
COPPER MTN     NOT AVBL
BERTHOUD PASS  SNOW       3  -8  60 NW33G45   30.07F VSB 1/4 WCI -23
COTTONWOOD PAS FAIR      30  -4  22 SW9G21    30.19S WCI  22
GUNNISON       FAIR      18   5  57 CALM      30.32F
KREMMLING      PTSUNNY   34  18  51 W8        30.30F WCI  27
LEADVILLE      FAIR      18   3  52 NW18G24   30.19F WCI   2
MONARCH PASS   CLOUDY     9   3  78 W31       30.26F WCI -14
SALIDA         FAIR      33   6  31 NW3       30.29F
SUNLIGHT       FAIR      14  12  92 MISG      30.28F
WILKERSON PASS FAIR      18  -4  38 W3        30.17F
$$

COZ069>075-232000-
...SAN LUIS VALLEY/SANGRE DE CRISTO MOUNTAINS...

CITY           SKY/WX    TMP DP  RH WIND       PRES   REMARKS
ALAMOSA        FAIR      28   7  41 VRB6      30.26F WCI  22
DEL NORTE      FAIR      30   1  28 E5        30.25F WCI  25
LA VETA PASS   FAIR      27   5  39 SW21G28     N/A  WCI  13
SAGUACHE       FAIR      27  10  50 S8        30.26F WCI  18
$$

COZ035-036-038>040-232000-
...NORTHERN COLORADO FRONT RANGE...

CITY           SKY/WX    TMP DP  RH WIND       PRES   REMARKS
DENVER INTL AP FAIR      36  13  38 NE6       30.21F
DMNS CITY PARK NOT AVBL
AURORA         MOSUNNY   36  11  35 CALM      30.23S
FRONT RANGE AP MOSUNNY   37  12  35 NE6       30.22F
ERIE MUNI ARPT FAIR      38  10  30 CALM      30.26F
BOULDER MUN AP FAIR      41   7  24 W21G28    30.19F
CENTENNIAL     FAIR      34   7  32 S3        30.20F
BROOMFIELD     MOSUNNY   37  10  32 W13       30.21F
FORT COLLINS   FAIR      35  17  47 SE6       30.21F WCI  30
LONGMONT       FAIR      40  16  37 E3        30.23S
$$

COZ041-046-047-076>085-087-088-232000-
...PIKES PEAK/PALMER DIVIDE AND SOUTHERN FOOTHILLS...

CITY           SKY/WX    TMP DP  RH WIND       PRES   REMARKS
COLO. SPRINGS  FAIR      39   6  25 VRB5      30.22F
A. F. ACADEMY  FAIR      36   2  24 NE5       30.19F
SCHRIEVER AFB  FAIR      38   1  20 N7        30.22F
CHEYENNE MTN   FAIR      33   6  31 SE13      30.14F WCI  24
ELLICOTT         N/A    N/A N/A N/A N12       30.20F
FALCON         FAIR      36  -1  20 N9        30.22F
FORT CARSON    FAIR      39   4  23 CALM      30.21F
LIMON          FAIR      35  13  40 NW5       30.23F WCI  31
MONUMENT HILL  FAIR      32   5  32 CALM      30.22F
CANON CITY     FAIR      43  14  31 W8        30.22F
WALSENBURG     NOT AVBL
TRINIDAD       FAIR      41   8  25 CALM      30.23F
$$

COZ042>045-048>051-090-091-232000-
...NORTHEAST COLORADO...

CITY           SKY/WX    TMP DP  RH WIND       PRES   REMARKS
GREELEY ARPT   FAIR      37  20  50 S7        30.23F
AKRON          FAIR      30  18  60 NW8       30.23F WCI  22
BURLINGTON     FAIR      33  21  61 NW10      30.25F WCI  25
WRAY           FAIR      37  25  60 NW9       30.24F
YUMA           FAIR      34  19  55 W15       30.23F WCI  24
STERLING       FAIR      37  21  52 NW22G29   30.22F
HOLYOKE        FAIR      39  23  52 NW14G21   30.22F
FORT MORGAN    FAIR      37  18  47 W7        30.24F
$$

COZ086-089-092>099-232000-
...SOUTHEAST COLORADO...

CITY           SKY/WX    TMP DP  RH WIND       PRES   REMARKS
PUEBLO         FAIR      42   8  24 SE7       30.24F
LA JUNTA       FAIR      41  13  31 VRB3      30.26F
LAMAR          FAIR      40  14  34 W8        30.27F
SPRINGFIELD      N/A     42  11  28 VRB5      30.26F
$$




USA.gov is the U.S. government's official web portal to all federal, state and local government web resources and services.